TimeEDT,TemperatureF,Dew PointF,Humidity,Sea Level PressureIn,VisibilityMPH,Wind Direction,Wind SpeedMPH,Gust SpeedMPH,PrecipitationIn,Events,Conditions,WindDirDegrees,DateUTC
12:15 AM,68.0,68.0,100,29.97,5.0,Calm,Calm,-,N/A,,Clear,0,2013-05-23 04:15:00
12:35 AM,68.0,68.0,100,29.96,4.0,Calm,Calm,-,N/A,,Clear,0,2013-05-23 04:35:00
12:55 AM,68.0,68.0,100,29.96,5.0,ENE,3.5,-,N/A,,Clear,60,2013-05-23 04:55:00
1:15 AM,68.0,68.0,100,29.95,5.0,Calm,Calm,-,N/A,,Clear,0,2013-05-23 05:15:00
1:35 AM,68.0,68.0,100,29.94,3.0,Calm,Calm,-,N/A,,Clear,0,2013-05-23 05:35:00
1:55 AM,68.0,68.0,100,29.94,1.5,Calm,Calm,-,N/A,,Mist,0,2013-05-23 05:55:00
2:15 AM,68.0,68.0,100,29.94,4.0,Calm,Calm,-,N/A,,Clear,0,2013-05-23 06:15:00
2:35 AM,68.0,68.0,100,29.93,5.0,Calm,Calm,-,N/A,,Clear,0,2013-05-23 06:35:00
2:55 AM,68.0,68.0,100,29.94,7.0,Calm,Calm,-,N/A,,Clear,0,2013-05-23 06:55:00
3:15 AM,68.0,68.0,100,29.94,7.0,Calm,Calm,-,N/A,,Clear,0,2013-05-23 07:15:00
3:35 AM,66.2,66.2,100,29.94,7.0,Calm,Calm,-,N/A,,Clear,0,2013-05-23 07:35:00
3:55 AM,66.2,66.2,100,29.93,10.0,Calm,Calm,-,N/A,,Clear,0,2013-05-23 07:55:00
4:15 AM,66.2,66.2,100,29.94,5.0,Calm,Calm,-,N/A,,Clear,0,2013-05-23 08:15:00
4:35 AM,66.2,66.2,100,29.94,4.0,Calm,Calm,-,N/A,,Clear,0,2013-05-23 08:35:00
4:55 AM,64.4,64.4,100,29.94,3.0,Calm,Calm,-,N/A,,Clear,0,2013-05-23 08:55:00
5:15 AM,64.4,64.4,100,29.95,0.5,Calm,Calm,-,N/A,Fog,Fog,0,2013-05-23 09:15:00
5:35 AM,64.4,64.4,100,29.95,5.0,Calm,Calm,-,N/A,,Clear,0,2013-05-23 09:35:00
5:55 AM,64.4,64.4,100,29.96,7.0,Calm,Calm,-,N/A,,Clear,0,2013-05-23 09:55:00
6:15 AM,64.4,64.4,100,29.97,4.0,Calm,Calm,-,N/A,,Clear,0,2013-05-23 10:15:00
6:35 AM,64.4,64.4,100,29.97,1.8,Calm,Calm,-,N/A,,Mist,0,2013-05-23 10:35:00
6:55 AM,64.4,64.4,100,29.98,0.5,Calm,Calm,-,N/A,Fog,Fog,0,2013-05-23 10:55:00
7:15 AM,64.4,64.4,100,29.99,7.0,Calm,Calm,-,N/A,,Scattered Clouds,0,2013-05-23 11:15:00
7:35 AM,68.0,68.0,100,30.00,0.2,Calm,Calm,-,N/A,Fog,Fog,0,2013-05-23 11:35:00
7:55 AM,68.0,68.0,100,30.01,0.8,Calm,Calm,-,N/A,,Overcast,0,2013-05-23 11:55:00
8:15 AM,69.8,69.8,100,30.01,0.5,Calm,Calm,-,N/A,Fog,Fog,0,2013-05-23 12:15:00
8:35 AM,69.8,69.8,100,30.01,5.0,NW,3.5,-,N/A,,Mostly Cloudy,310,2013-05-23 12:35:00
8:55 AM,73.4,71.6,94,30.01,10.0,WNW,3.5,-,N/A,,Scattered Clouds,300,2013-05-23 12:55:00
9:15 AM,75.2,71.6,89,30.01,10.0,WNW,6.9,-,N/A,,Clear,300,2013-05-23 13:15:00
9:35 AM,77.0,71.6,83,30.02,10.0,NW,6.9,-,N/A,,Clear,310,2013-05-23 13:35:00
9:55 AM,78.8,71.6,78,30.01,10.0,NW,8.1,-,N/A,,Clear,310,2013-05-23 13:55:00
10:15 AM,80.6,71.6,74,30.01,10.0,West,8.1,-,N/A,,Clear,270,2013-05-23 14:15:00
10:35 AM,80.6,69.8,70,30.02,10.0,WNW,8.1,-,N/A,,Clear,290,2013-05-23 14:35:00
10:55 AM,82.4,69.8,66,30.02,10.0,NW,6.9,-,N/A,,Scattered Clouds,320,2013-05-23 14:55:00
11:15 AM,82.4,69.8,66,30.02,10.0,NW,5.8,-,N/A,,Scattered Clouds,320,2013-05-23 15:15:00
11:35 AM,82.4,69.8,66,30.02,10.0,NNW,5.8,-,N/A,,Scattered Clouds,330,2013-05-23 15:35:00
11:55 AM,84.2,69.8,62,30.02,10.0,WNW,5.8,-,N/A,,Scattered Clouds,300,2013-05-23 15:55:00
12:15 PM,82.4,68.0,62,30.02,10.0,WNW,6.9,-,N/A,,Scattered Clouds,300,2013-05-23 16:15:00
12:35 PM,86.0,69.8,58,30.01,10.0,WNW,9.2,-,N/A,,Scattered Clouds,300,2013-05-23 16:35:00
12:55 PM,84.2,69.8,62,30.01,10.0,NW,5.8,-,N/A,,Mostly Cloudy,320,2013-05-23 16:55:00
1:15 PM,86.0,69.8,58,30.00,10.0,West,6.9,-,N/A,,Scattered Clouds,270,2013-05-23 17:15:00
1:35 PM,86.0,69.8,58,30.00,10.0,NW,6.9,-,N/A,,Scattered Clouds,320,2013-05-23 17:35:00
1:55 PM,86.0,69.8,58,30.00,10.0,West,6.9,-,N/A,,Clear,260,2013-05-23 17:55:00
2:15 PM,86.0,69.8,58,29.99,10.0,NW,3.5,-,N/A,,Scattered Clouds,320,2013-05-23 18:15:00
2:35 PM,86.0,68.0,55,29.99,10.0,Calm,Calm,-,N/A,,Scattered Clouds,0,2013-05-23 18:35:00
2:55 PM,87.8,69.8,55,29.99,10.0,NNW,8.1,-,N/A,,Scattered Clouds,340,2013-05-23 18:55:00
3:15 PM,86.0,68.0,55,29.98,10.0,NNW,6.9,-,N/A,,Scattered Clouds,340,2013-05-23 19:15:00
3:35 PM,87.8,68.0,52,29.97,10.0,WNW,3.5,-,N/A,,Scattered Clouds,290,2013-05-23 19:35:00
3:55 PM,87.8,68.0,52,29.97,10.0,NW,6.9,-,N/A,,Mostly Cloudy,320,2013-05-23 19:55:00
4:15 PM,87.8,68.0,52,29.96,10.0,NNE,6.9,-,N/A,,Mostly Cloudy,30,2013-05-23 20:15:00
4:35 PM,86.0,68.0,55,29.96,10.0,North,4.6,-,N/A,,Scattered Clouds,10,2013-05-23 20:35:00
4:55 PM,87.8,69.8,55,29.95,10.0,NNE,4.6,-,N/A,,Scattered Clouds,20,2013-05-23 20:55:00
5:15 PM,87.8,69.8,55,29.95,10.0,ENE,4.6,-,N/A,,Mostly Cloudy,60,2013-05-23 21:15:00
5:35 PM,87.8,68.0,52,29.95,10.0,NNE,5.8,-,N/A,,Scattered Clouds,30,2013-05-23 21:35:00
5:55 PM,87.8,68.0,52,29.95,10.0,Calm,Calm,-,N/A,,Scattered Clouds,0,2013-05-23 21:55:00
6:15 PM,87.8,68.0,52,29.95,10.0,Calm,Calm,-,N/A,,Scattered Clouds,0,2013-05-23 22:15:00
6:35 PM,86.0,68.0,55,29.95,10.0,Calm,Calm,-,N/A,,Scattered Clouds,0,2013-05-23 22:35:00
6:55 PM,82.4,71.6,70,29.95,10.0,SE,5.8,-,N/A,,Mostly Cloudy,130,2013-05-23 22:55:00
7:15 PM,82.4,71.6,70,29.95,10.0,ESE,8.1,-,N/A,,Scattered Clouds,120,2013-05-23 23:15:00
7:35 PM,80.6,71.6,74,29.96,10.0,ESE,4.6,-,N/A,,Clear,110,2013-05-23 23:35:00
7:55 PM,80.6,71.6,74,29.97,10.0,ESE,4.6,-,N/A,,Clear,120,2013-05-23 23:55:00
8:15 PM,78.8,71.6,78,29.97,10.0,SE,5.8,-,N/A,,Clear,130,2013-05-24 00:15:00
8:35 PM,78.8,71.6,78,29.98,10.0,SE,5.8,-,N/A,,Clear,130,2013-05-24 00:35:00
8:55 PM,78.8,71.6,78,29.97,10.0,ESE,4.6,-,N/A,Thunderstorm,Clear,120,2013-05-24 00:55:00
9:15 PM,77.0,71.6,83,29.98,10.0,ESE,4.6,-,N/A,Rain-Thunderstorm,Light Thunderstorms and Rain,120,2013-05-24 01:15:00
9:35 PM,77.0,68.0,74,30.01,10.0,North,17.3,21.9,N/A,Rain-Thunderstorm,Light Thunderstorms and Rain,350,2013-05-24 01:35:00
9:55 PM,68.0,64.4,88,30.01,7.0,WSW,9.2,-,0.07,Rain-Thunderstorm,Rain,250,2013-05-24 01:55:00
10:15 PM,68.0,66.2,94,30.01,10.0,Calm,Calm,-,0.02,Rain,Light Rain,0,2013-05-24 02:15:00
10:35 PM,68.0,66.2,94,30.02,10.0,Calm,Calm,-,0.02,,Clear,0,2013-05-24 02:35:00
10:55 PM,68.0,68.0,100,30.03,10.0,Calm,Calm,-,0.02,,Scattered Clouds,0,2013-05-24 02:55:00
11:15 PM,69.8,66.2,88,30.03,10.0,SSW,3.5,-,N/A,,Scattered Clouds,200,2013-05-24 03:15:00
11:35 PM,69.8,66.2,88,30.02,10.0,Calm,Calm,-,N/A,,Clear,0,2013-05-24 03:35:00
11:55 PM,68.0,68.0,100,30.02,10.0,SSE,3.5,-,N/A,,Clear,150,2013-05-24 03:55:00